﻿_id,日時,平均風速(m/s),平均風向,最大瞬間風速(m/s),最大風速時風向,気温(℃),湿度(%),10分間移動積算雨量(mm),1時間移動積算雨量(mm),日雨量(mm),累計雨量(mm),日射(日積算)(MJ/m2),日照(日積算)(min),現地気圧(hPa),海面気圧(hPa)
1,2020-12-28T00:00:00,0.1,静穏,0.6,北西,4.5,94.1,0.5,1,1,1,8.81,306,1008.7,1023.2
2,2020-12-28T00:01:00,0.1,静穏,0.6,北西,4.6,94.4,0.5,1,0,1,0,0,1008.7,1023.2
3,2020-12-28T00:02:00,0.1,静穏,0.6,北西,4.5,94.3,0.5,1,0,1,0,0,1008.6,1023.1
4,2020-12-28T00:03:00,0.1,静穏,0.6,北西,4.7,94.5,0.5,1,0,1,0,0,1008.6,1023.1
5,2020-12-28T00:04:00,0.1,静穏,0.6,北西,4.7,94.9,0.5,1,0,1,0,0,1008.7,1023.2
6,2020-12-28T00:05:00,0,静穏,0.4,西北西,4.7,94.8,0.5,1,0,1,0,0,1008.6,1023.1
7,2020-12-28T00:06:00,0,静穏,0.4,西北西,4.6,94.5,0.5,1,0,1,0,0,1008.6,1023.1
8,2020-12-28T00:07:00,0,静穏,0.4,西北西,4.7,94.6,0,1,0,1,0,0,1008.6,1023.1
9,2020-12-28T00:08:00,0,静穏,0.4,西北西,4.5,94.5,0,1,0,1,0,0,1008.6,1023.1
10,2020-12-28T00:09:00,0,静穏,0.4,西北西,4.6,94.5,0,1,0,1,0,0,1008.6,1023.1
11,2020-12-28T00:10:00,0,静穏,0.4,西北西,4.6,94.6,0.5,1.5,0.5,1.5,0,0,1008.6,1023.1
12,2020-12-28T00:11:00,0,静穏,0.4,西北西,4.6,94.8,0.5,1.5,0.5,1.5,0,0,1008.6,1023.1
13,2020-12-28T00:12:00,0,静穏,0.4,西北西,4.5,94.7,0.5,1.5,0.5,1.5,0,0,1008.6,1023.1
14,2020-12-28T00:13:00,0,静穏,0.4,西北西,4.4,94.1,0.5,1.5,0.5,1.5,0,0,1008.6,1023.1
15,2020-12-28T00:14:00,0,静穏,0.4,西北西,4.6,94.8,0.5,1.5,0.5,1.5,0,0,1008.6,1023.1
16,2020-12-28T00:15:00,0.1,静穏,0.4,西北西,4.6,95.2,0.5,1.5,0.5,1.5,0,0,1008.5,1023
17,2020-12-28T00:16:00,0.1,静穏,0.4,北,4.6,95,0.5,1.5,0.5,1.5,0,0,1008.6,1023.1
18,2020-12-28T00:17:00,0.1,静穏,0.4,北,4.7,95,0.5,1.5,0.5,1.5,0,0,1008.5,1023
19,2020-12-28T00:18:00,0.1,静穏,0.4,北,4.6,95,0.5,1.5,0.5,1.5,0,0,1008.5,1023
20,2020-12-28T00:19:00,0.1,静穏,0.4,北,4.6,94.9,0.5,1,0.5,1.5,0,0,1008.5,1023
21,2020-12-28T00:20:00,0.1,静穏,0.4,北,4.6,95.1,0,1,0.5,1.5,0,0,1008.5,1023
22,2020-12-28T00:21:00,0.1,静穏,0.4,北,4.7,95.1,0,1,0.5,1.5,0,0,1008.5,1023
23,2020-12-28T00:22:00,0.1,静穏,0.4,北,4.5,95,0,1,0.5,1.5,0,0,1008.5,1023
24,2020-12-28T00:23:00,0.1,静穏,0.4,北,4.5,94.8,0,1,0.5,1.5,0,0,1008.4,1022.9
25,2020-12-28T00:24:00,0.1,静穏,0.4,北,4.5,94.8,0,1,0.5,1.5,0,0,1008.4,1022.9
26,2020-12-28T00:25:00,0.1,静穏,0.4,北,4.5,95,0,1,0.5,1.5,0,0,1008.3,1022.8
27,2020-12-28T00:26:00,0.1,静穏,0.4,北,4.5,95.2,0,1,0.5,1.5,0,0,1008.3,1022.8
28,2020-12-28T00:27:00,0.1,静穏,0.7,北北東,4.5,95,0,1,0.5,1.5,0,0,1008.2,1022.7
29,2020-12-28T00:28:00,0.1,静穏,0.7,北北東,4.6,95.2,0,1,0.5,1.5,0,0,1008.2,1022.7
30,2020-12-28T00:29:00,0.1,静穏,0.7,北北東,4.6,95.4,0,1,0.5,1.5,0,0,1008.2,1022.7
31,2020-12-28T00:30:00,0.1,静穏,0.7,北北東,4.6,95.4,0,1,0.5,1.5,0,0,1008.2,1022.7
32,2020-12-28T00:31:00,0.1,静穏,0.7,北北東,4.6,95.5,0,1,0.5,1.5,0,0,1008.2,1022.7
33,2020-12-28T00:32:00,0.1,静穏,0.7,北北東,4.5,95.3,0,1,0.5,1.5,0,0,1008.3,1022.8
34,2020-12-28T00:33:00,0.1,静穏,0.7,北北東,4.5,95.3,0,1,0.5,1.5,0,0,1008.3,1022.8
35,2020-12-28T00:34:00,0.1,静穏,0.7,北北東,4.6,95.3,0.5,1.5,1,2,0,0,1008.3,1022.8
36,2020-12-28T00:35:00,0.1,静穏,0.7,北北東,4.6,95.4,0.5,1.5,1,2,0,0,1008.3,1022.8
37,2020-12-28T00:36:00,0.1,静穏,0.7,北北東,4.7,95.5,0.5,1.5,1,2,0,0,1008.3,1022.8
38,2020-12-28T00:37:00,0.1,静穏,0.6,北北東,4.7,95.5,0.5,1.5,1,2,0,0,1008.3,1022.8
39,2020-12-28T00:38:00,0.1,静穏,0.5,西,4.6,95.5,0.5,1.5,1,2,0,0,1008.4,1022.9
40,2020-12-28T00:39:00,0.1,静穏,0.5,西,4.6,95.4,0.5,1.5,1,2,0,0,1008.5,1023
41,2020-12-28T00:40:00,0.1,静穏,0.7,西北西,4.7,95.5,0.5,1.5,1,2,0,0,1008.5,1023
42,2020-12-28T00:41:00,0.2,静穏,0.7,西北西,4.6,95.5,0.5,1.5,1,2,0,0,1008.5,1023
43,2020-12-28T00:42:00,0.2,静穏,0.7,西北西,4.6,95.4,0.5,1.5,1,2,0,0,1008.5,1023
44,2020-12-28T00:43:00,0.2,静穏,0.7,西北西,4.6,95.5,0.5,1.5,1,2,0,0,1008.4,1022.9
45,2020-12-28T00:44:00,0.2,静穏,0.7,西北西,4.5,95.5,0,1.5,1,2,0,0,1008.4,1022.9
46,2020-12-28T00:45:00,0.2,静穏,0.7,西北西,4.4,95.3,0,1.5,1,2,0,0,1008.3,1022.8
47,2020-12-28T00:46:00,0.2,静穏,0.7,西北西,4.4,95.1,0,1.5,1,2,0,0,1008.3,1022.8
48,2020-12-28T00:47:00,0.2,静穏,0.7,西北西,4.5,95.3,0,1.5,1,2,0,0,1008.2,1022.7
49,2020-12-28T00:48:00,0.2,静穏,0.7,西北西,4.5,95.5,0,1.5,1,2,0,0,1008.1,1022.6
50,2020-12-28T00:49:00,0.2,静穏,0.7,西北西,4.7,95.6,0,1.5,1,2,0,0,1008.1,1022.6
51,2020-12-28T00:50:00,0.2,静穏,0.7,北西,4.6,95.7,0,1.5,1,2,0,0,1008.1,1022.6
52,2020-12-28T00:51:00,0.1,静穏,0.7,北西,4.6,95.6,0,1.5,1,2,0,0,1008.1,1022.6
53,2020-12-28T00:52:00,0.1,静穏,1,西北西,4.6,95.6,0,1.5,1,2,0,0,1008.1,1022.6
54,2020-12-28T00:53:00,0.2,静穏,1,西北西,4.6,95.5,0,1.5,1,2,0,0,1008.1,1022.6
55,2020-12-28T00:54:00,0.2,静穏,1,西北西,4.7,95.7,0,1.5,1,2,0,0,1008.1,1022.6
56,2020-12-28T00:55:00,0.2,静穏,1,西北西,4.6,95.7,0,1.5,1,2,0,0,1008.1,1022.6
57,2020-12-28T00:56:00,0.2,静穏,1,西北西,4.6,95.4,0,1.5,1,2,0,0,1008.1,1022.6
58,2020-12-28T00:57:00,0.3,北,1,西北西,4.6,95.4,0,1,1,2,0,0,1008,1022.5
59,2020-12-28T00:58:00,0.2,静穏,1,西北西,4.6,95.6,0,1,1,2,0,0,1008,1022.5
60,2020-12-28T00:59:00,0.2,静穏,1,西北西,4.6,95.7,0,1,1,2,0,0,1008,1022.5
61,2020-12-28T01:00:00,0.2,静穏,1,西北西,4.5,95.6,0,1,1,2,0,0,1008,1022.5
62,2020-12-28T01:01:00,0.2,静穏,1,西北西,4.5,95.5,0,1,1,2,0,0,1008,1022.5
63,2020-12-28T01:02:00,0.2,静穏,0.7,北東,4.5,95.5,0,1,1,2,0,0,1008,1022.5
64,2020-12-28T01:03:00,0.2,静穏,0.7,北東,4.5,95.6,0,1,1,2,0,0,1008,1022.5
65,2020-12-28T01:04:00,0.2,静穏,0.7,北東,4.5,95.5,0,1,1,2,0,0,1007.9,1022.4
66,2020-12-28T01:05:00,0.3,北北西,0.9,北西,4.7,95.7,0,1,1,2,0,0,1007.9,1022.3
67,2020-12-28T01:06:00,0.3,北北西,1.2,北西,4.7,95.9,0,1,1,2,0,0,1007.9,1022.3
68,2020-12-28T01:07:00,0.4,北北西,1.4,北西,4.7,95.8,0,1,1,2,0,0,1008,1022.4
69,2020-12-28T01:08:00,0.5,北北西,1.4,北西,4.8,95.7,0,1,1,2,0,0,1008,1022.4
70,2020-12-28T01:09:00,0.5,北北西,1.4,北西,4.7,95.7,0,1,1,2,0,0,1008,1022.4
71,2020-12-28T01:10:00,0.6,北北西,1.6,北西,4.7,95.7,0,0.5,1,2,0,0,1008,1022.4
72,2020-12-28T01:11:00,0.7,北西,1.6,北西,4.6,95.6,0,0.5,1,2,0,0,1008,1022.5
73,2020-12-28T01:12:00,0.7,北北西,1.6,北西,4.7,95.6,0,0.5,1,2,0,0,1008.1,1022.6
74,2020-12-28T01:13:00,0.7,北西,1.6,北西,4.6,95.7,0,0.5,1,2,0,0,1008.1,1022.6
75,2020-12-28T01:14:00,0.6,北北西,1.6,北西,4.6,95.5,0,0.5,1,2,0,0,1008.1,1022.6
76,2020-12-28T01:15:00,0.6,北北西,1.6,北西,4.7,95.6,0,0.5,1,2,0,0,1008.1,1022.6
77,2020-12-28T01:16:00,0.5,北北西,1.6,北西,4.6,95.7,0,0.5,1,2,0,0,1008,1022.5
78,2020-12-28T01:17:00,0.5,北北西,1.6,北西,4.6,95.6,0,0.5,1,2,0,0,1008,1022.5
79,2020-12-28T01:18:00,0.4,北北西,1.6,北西,4.6,95.6,0,0.5,1,2,0,0,1008,1022.5
80,2020-12-28T01:19:00,0.4,北北西,1.6,北西,4.6,95.7,0,0.5,1,2,0,0,1008,1022.5
81,2020-12-28T01:20:00,0.4,北,1.4,北北東,4.6,95.6,0,0.5,1,2,0,0,1008.1,1022.6
82,2020-12-28T01:21:00,0.4,北,1.4,北北東,4.5,95.6,0,0.5,1,2,0,0,1008,1022.5
83,2020-12-28T01:22:00,0.5,北,1.4,北北東,4.6,95.7,0,0.5,1,2,0,0,1008,1022.5
84,2020-12-28T01:23:00,0.6,北北東,1.5,北東,4.6,95.8,0,0.5,1,2,0,0,1008,1022.5
85,2020-12-28T01:24:00,0.7,北北東,1.6,北東,4.6,95.7,0,0.5,1,2,0,0,1008,1022.5
86,2020-12-28T01:25:00,0.8,北北東,2,北東,4.6,95.7,0,0.5,1,2,0,0,1008,1022.5
87,2020-12-28T01:26:00,1,北北東,2,北東,4.6,95.8,0,0.5,1,2,0,0,1008,1022.5
88,2020-12-28T01:27:00,1.1,北北東,2,北東,4.7,95.7,0,0.5,1,2,0,0,1008.1,1022.6
89,2020-12-28T01:28:00,1.1,北北東,2,北東,4.8,96,0,0.5,1,2,0,0,1008,1022.4
90,2020-12-28T01:29:00,1.2,北東,2,北東,4.7,95.8,0,0.5,1,2,0,0,1008.1,1022.6
91,2020-12-28T01:30:00,1.3,北東,2,北東,4.7,95.7,0,0.5,1,2,0,0,1008.1,1022.6
92,2020-12-28T01:31:00,1.3,北東,2,北東,4.6,95.7,0,0.5,1,2,0,0,1008,1022.5
93,2020-12-28T01:32:00,1.3,北東,2,北東,4.6,95.6,0,0.5,1,2,0,0,1008,1022.5
94,2020-12-28T01:33:00,1.3,北東,2,北東,4.6,95.7,0,0.5,1,2,0,0,1008,1022.5
95,2020-12-28T01:34:00,1.3,北東,2,北東,4.6,95.7,0,0,1,2,0,0,1008,1022.5
96,2020-12-28T01:35:00,1.2,北東,2,北東,4.7,95.8,0,0,1,2,0,0,1008,1022.4
97,2020-12-28T01:36:00,1.1,北北東,1.9,北東,4.6,95.7,0,0,1,2,0,0,1008,1022.5
98,2020-12-28T01:37:00,1.1,北北東,1.8,北東,4.6,95.7,0,0,1,2,0,0,1008,1022.5
99,2020-12-28T01:38:00,1.1,北北東,1.8,北東,4.6,95.7,0,0,1,2,0,0,1008,1022.5
100,2020-12-28T01:39:00,1,北北東,1.8,北東,4.6,95.7,0,0,1,2,0,0,1008,1022.5
101,2020-12-28T01:40:00,1,北北東,1.7,北,4.6,95.8,0,0,1,2,0,0,1008,1022.5
102,2020-12-28T01:41:00,0.9,北北東,1.7,北,4.6,95.8,0,0,1,2,0,0,1008,1022.5
103,2020-12-28T01:42:00,0.9,北北東,1.7,北,4.5,95.7,0.5,0.5,1.5,2.5,0,0,1008,1022.5
104,2020-12-28T01:43:00,0.8,北北東,1.7,北,4.6,95.6,0.5,0.5,1.5,2.5,0,0,1008,1022.5
105,2020-12-28T01:44:00,0.7,北北東,1.7,北,4.7,95.8,0.5,0.5,1.5,2.5,0,0,1008,1022.4
106,2020-12-28T01:45:00,0.7,北北東,1.7,北,4.7,95.9,0.5,0.5,1.5,2.5,0,0,1008,1022.4
107,2020-12-28T01:46:00,0.7,北北東,1.7,北,4.7,95.9,0.5,0.5,1.5,2.5,0,0,1007.9,1022.3
108,2020-12-28T01:47:00,0.7,北北東,1.7,北,4.6,95.8,0.5,0.5,1.5,2.5,0,0,1007.9,1022.4
109,2020-12-28T01:48:00,0.7,北北東,1.6,北,4.7,95.8,0.5,0.5,1.5,2.5,0,0,1007.8,1022.2
110,2020-12-28T01:49:00,0.7,北北東,1.6,北,4.6,95.7,0.5,0.5,1.5,2.5,0,0,1007.8,1022.3
111,2020-12-28T01:50:00,0.7,北北東,1.6,北,4.6,95.7,0.5,0.5,1.5,2.5,0,0,1007.8,1022.3
112,2020-12-28T01:51:00,0.7,北北東,1.6,北,4.6,95.6,0.5,0.5,1.5,2.5,0,0,1007.8,1022.3
113,2020-12-28T01:52:00,0.7,北北東,1.6,北,4.6,95.7,0,0.5,1.5,2.5,0,0,1007.8,1022.3
114,2020-12-28T01:53:00,0.7,北北東,1.6,北,4.8,96,0,0.5,1.5,2.5,0,0,1007.8,1022.2
115,2020-12-28T01:54:00,0.8,北北東,1.6,北,4.6,95.9,0,0.5,1.5,2.5,0,0,1007.8,1022.3
116,2020-12-28T01:55:00,0.8,北北東,1.6,北,4.6,95.8,0,0.5,1.5,2.5,0,0,1007.8,1022.3
117,2020-12-28T01:56:00,0.7,北北東,1.6,北,4.6,95.8,0,0.5,1.5,2.5,0,0,1007.8,1022.3
118,2020-12-28T01:57:00,0.7,北北東,1.6,北,4.9,95.9,0,0.5,1.5,2.5,0,0,1007.8,1022.2
119,2020-12-28T01:58:00,0.6,北北東,1.4,北北東,4.8,96,0,0.5,1.5,2.5,0,0,1007.8,1022.2
120,2020-12-28T01:59:00,0.6,北,1.4,北北東,4.7,95.8,0,0.5,1.5,2.5,0,0,1007.8,1022.2
121,2020-12-28T02:00:00,0.5,北,1.4,北北東,4.7,95.7,0,0.5,1.5,2.5,0,0,1007.7,1022.1
122,2020-12-28T02:01:00,0.5,北,1.4,北北東,4.6,95.8,0,0.5,1.5,2.5,0,0,1007.7,1022.1
123,2020-12-28T02:02:00,0.5,北,1.4,北北東,4.5,95.6,0,0.5,1.5,2.5,0,0,1007.6,1022.1
124,2020-12-28T02:03:00,0.5,北,1.4,北北東,4.7,95.7,0,0.5,1.5,2.5,0,0,1007.6,1022
125,2020-12-28T02:04:00,0.4,北,1.3,北北東,4.7,95.9,0,0.5,1.5,2.5,0,0,1007.6,1022
126,2020-12-28T02:05:00,0.4,北北東,1.3,北北東,4.7,95.9,0,0.5,1.5,2.5,0,0,1007.6,1022
127,2020-12-28T02:06:00,0.4,北北東,1.3,北北東,4.7,95.8,0,0.5,1.5,2.5,0,0,1007.6,1022
128,2020-12-28T02:07:00,0.4,北北東,1.1,北東,4.6,95.7,0,0.5,1.5,2.5,0,0,1007.6,1022
129,2020-12-28T02:08:00,0.4,北北東,1.1,北東,4.6,95.7,0,0.5,1.5,2.5,0,0,1007.6,1022
130,2020-12-28T02:09:00,0.4,北北東,1.1,北東,4.6,95.8,0,0.5,1.5,2.5,0,0,1007.6,1022
131,2020-12-28T02:10:00,0.4,北北東,1.1,北東,4.5,95.7,0,0.5,1.5,2.5,0,0,1007.6,1022.1
132,2020-12-28T02:11:00,0.3,北北東,1.1,北東,4.5,95.6,0,0.5,1.5,2.5,0,0,1007.6,1022.1
133,2020-12-28T02:12:00,0.3,北北東,1.1,北東,4.4,95.6,0,0.5,1.5,2.5,0,0,1007.6,1022.1
134,2020-12-28T02:13:00,0.3,北,0.9,北北東,4.4,95.6,0,0.5,1.5,2.5,0,0,1007.6,1022.1
135,2020-12-28T02:14:00,0.2,静穏,0.9,北北東,4.5,95.7,0,0.5,1.5,2.5,0,0,1007.6,1022.1
136,2020-12-28T02:15:00,0.2,静穏,0.9,北北東,4.5,95.9,0,0.5,1.5,2.5,0,0,1007.6,1022.1
137,2020-12-28T02:16:00,0.1,静穏,0.9,北北東,4.5,95.8,0,0.5,1.5,2.5,0,0,1007.6,1022.1
138,2020-12-28T02:17:00,0.1,静穏,0.9,北北東,4.4,95.7,0,0.5,1.5,2.5,0,0,1007.6,1022.1
139,2020-12-28T02:18:00,0.1,静穏,0.6,西北西,4.5,95.8,0,0.5,1.5,2.5,0,0,1007.6,1022.1
140,2020-12-28T02:19:00,0.1,静穏,0.6,西北西,4.4,95.7,0,0.5,1.5,2.5,0,0,1007.6,1022.1
141,2020-12-28T02:20:00,0.1,静穏,0.6,西北西,4.5,95.9,0,0.5,1.5,2.5,0,0,1007.6,1022.1
142,2020-12-28T02:21:00,0.2,静穏,0.6,西北西,4.5,95.9,0,0.5,1.5,2.5,0,0,1007.6,1022.1
143,2020-12-28T02:22:00,0.2,静穏,0.8,西,4.5,96,0,0.5,1.5,2.5,0,0,1007.5,1022
144,2020-12-28T02:23:00,0.3,西北西,0.8,西,4.5,95.8,0,0.5,1.5,2.5,0,0,1007.5,1022
145,2020-12-28T02:24:00,0.3,西北西,0.9,西,4.5,95.9,0,0.5,1.5,2.5,0,0,1007.5,1022
146,2020-12-28T02:25:00,0.4,西北西,0.9,西,4.6,95.9,0,0.5,1.5,2.5,0,0,1007.4,1021.8
147,2020-12-28T02:26:00,0.4,西北西,0.9,西,4.5,95.9,0,0.5,1.5,2.5,0,0,1007.4,1021.9
148,2020-12-28T02:27:00,0.5,西北西,0.9,西,4.4,95.9,0,0.5,1.5,2.5,0,0,1007.4,1021.9
149,2020-12-28T02:28:00,0.4,西北西,0.9,西,4.4,95.7,0,0.5,1.5,2.5,0,0,1007.4,1021.9
150,2020-12-28T02:29:00,0.5,西,0.9,西,4.4,95.8,0,0.5,1.5,2.5,0,0,1007.3,1021.8
151,2020-12-28T02:30:00,0.5,西,0.9,西,4.4,95.8,0,0.5,1.5,2.5,0,0,1007.3,1021.8
152,2020-12-28T02:31:00,0.5,西,0.9,西,4.5,95.9,0,0.5,1.5,2.5,0,0,1007.3,1021.7
153,2020-12-28T02:32:00,0.5,西,0.9,西,4.5,96,0,0.5,1.5,2.5,0,0,1007.4,1021.9
154,2020-12-28T02:33:00,0.5,西北西,0.9,西,4.5,96,0,0.5,1.5,2.5,0,0,1007.3,1021.7
155,2020-12-28T02:34:00,0.5,西北西,0.8,西,4.5,96,0,0.5,1.5,2.5,0,0,1007.3,1021.7
156,2020-12-28T02:35:00,0.5,西北西,0.8,西,4.5,96.1,0,0.5,1.5,2.5,0,0,1007.4,1021.9
157,2020-12-28T02:36:00,0.5,西北西,1.1,西,4.5,96,0,0.5,1.5,2.5,0,0,1007.3,1021.7
158,2020-12-28T02:37:00,0.5,西北西,1.1,西,4.4,96,0,0.5,1.5,2.5,0,0,1007.3,1021.8
159,2020-12-28T02:38:00,0.6,西北西,1.1,西,4.5,95.9,0,0.5,1.5,2.5,0,0,1007.2,1021.6
160,2020-12-28T02:39:00,0.6,西,1.1,西,4.4,95.9,0,0.5,1.5,2.5,0,0,1007.2,1021.7
161,2020-12-28T02:40:00,0.7,西,1.3,西,4.3,95.7,0,0.5,1.5,2.5,0,0,1007.2,1021.7
162,2020-12-28T02:41:00,0.7,西,1.4,西,4.4,95.8,0.5,1,2,3,0,0,1007.2,1021.7
163,2020-12-28T02:42:00,0.7,西,1.7,西,4.3,95.9,0.5,0.5,2,3,0,0,1007.3,1021.8
164,2020-12-28T02:43:00,0.8,西,1.7,西,4.4,95.9,0.5,0.5,2,3,0,0,1007.3,1021.8
165,2020-12-28T02:44:00,0.9,西,1.7,西,4.4,96,0.5,0.5,2,3,0,0,1007.3,1021.8
166,2020-12-28T02:45:00,1,西,1.8,西,4.4,96,0.5,0.5,2,3,0,0,1007.3,1021.8
167,2020-12-28T02:46:00,1.1,西,1.8,西,4.6,96.1,0.5,0.5,2,3,0,0,1007.2,1021.6
168,2020-12-28T02:47:00,1.1,西,1.8,西,4.5,96.2,0.5,0.5,2,3,0,0,1007.2,1021.6
169,2020-12-28T02:48:00,1.2,西,1.8,西,4.4,96,0.5,0.5,2,3,0,0,1007.2,1021.7
170,2020-12-28T02:49:00,1.2,西,1.8,西,4.5,96,0.5,0.5,2,3,0,0,1007.1,1021.5
171,2020-12-28T02:50:00,1.2,西,1.8,西,4.4,96.1,0.5,0.5,2,3,0,0,1007.1,1021.6
172,2020-12-28T02:51:00,1.3,西,1.8,西,4.6,96.1,0,0.5,2,3,0,0,1007.1,1021.5
173,2020-12-28T02:52:00,1.3,西,1.8,西,4.5,96.2,0,0.5,2,3,0,0,1007.1,1021.5
174,2020-12-28T02:53:00,1.2,西,1.8,西,4.5,96.1,0,0.5,2,3,0,0,1007.1,1021.5
175,2020-12-28T02:54:00,1.2,西,1.8,西,4.4,96,0,0.5,2,3,0,0,1007.1,1021.6
176,2020-12-28T02:55:00,1.1,西,1.6,西,4.4,95.8,0,0.5,2,3,0,0,1007.2,1021.7
177,2020-12-28T02:56:00,1.1,西,1.6,西,4.5,96,0,0.5,2,3,0,0,1007.1,1021.5
178,2020-12-28T02:57:00,1,西,1.3,西,4.6,96.2,0,0.5,2,3,0,0,1007.2,1021.6
179,2020-12-28T02:58:00,1,西,1.7,西,4.5,96.2,0,0.5,2,3,0,0,1007.2,1021.6
180,2020-12-28T02:59:00,1.1,西,1.8,西,4.4,95.9,0,0.5,2,3,0,0,1007.2,1021.7
181,2020-12-28T03:00:00,1.1,西,1.9,西,4.4,95.9,0,0.5,2,3,0,0,1007.2,1021.7
182,2020-12-28T03:01:00,1.2,西,1.9,西,4.4,95.8,0,0.5,2,3,0,0,1007.3,1021.8
183,2020-12-28T03:02:00,1.2,西,1.9,西,4.4,95.8,0,0.5,2,3,0,0,1007.3,1021.8
184,2020-12-28T03:03:00,1.2,西,2.2,西,4.3,95.9,0,0.5,2,3,0,0,1007.4,1021.9
185,2020-12-28T03:04:00,1.3,西,2.2,西,4.3,95.8,0,0.5,2,3,0,0,1007.4,1021.9
186,2020-12-28T03:05:00,1.4,西,2.4,西,4.3,95.8,0,0.5,2,3,0,0,1007.4,1021.9
187,2020-12-28T03:06:00,1.5,西,2.4,西,4.3,95.9,0,0.5,2,3,0,0,1007.4,1021.9
188,2020-12-28T03:07:00,1.6,西,2.4,西,4.4,96,0,0.5,2,3,0,0,1007.3,1021.8
189,2020-12-28T03:08:00,1.5,西,2.4,西,4.3,95.9,0,0.5,2,3,0,0,1007.2,1021.7
190,2020-12-28T03:09:00,1.5,西,2.4,西,4.4,96,0,0.5,2,3,0,0,1007.2,1021.7
191,2020-12-28T03:10:00,1.4,西,2.4,西,4.4,96.1,0,0.5,2,3,0,0,1007.1,1021.6
192,2020-12-28T03:11:00,1.4,西,2.4,西,4.3,96,0,0.5,2,3,0,0,1007.1,1021.6
193,2020-12-28T03:12:00,1.4,西,2.4,西,4.4,96,0,0.5,2,3,0,0,1007,1021.5
194,2020-12-28T03:13:00,1.4,西,2.4,西,4.4,96.1,0,0.5,2,3,0,0,1007,1021.5
195,2020-12-28T03:14:00,1.4,西,2.4,西,4.3,96,0,0.5,2,3,0,0,1006.9,1021.4
196,2020-12-28T03:15:00,1.3,西,2.2,西,4.4,95.9,0,0.5,2,3,0,0,1006.9,1021.3
197,2020-12-28T03:16:00,1.3,西,2.1,西,4.4,96.1,0,0.5,2,3,0,0,1006.9,1021.3
198,2020-12-28T03:17:00,1.2,西,1.9,西南西,4.4,95.9,0,0.5,2,3,0,0,1006.9,1021.3
199,2020-12-28T03:18:00,1.3,西,1.9,西南西,4.3,95.9,0,0.5,2,3,0,0,1007,1021.5
200,2020-12-28T03:19:00,1.3,西,1.9,西南西,4.3,95.9,0,0.5,2,3,0,0,1007,1021.5
201,2020-12-28T03:20:00,1.4,西,2,西,4.2,95.8,0,0.5,2,3,0,0,1007,1021.5
202,2020-12-28T03:21:00,1.5,西,2.4,西,4.2,95.7,0,0.5,2,3,0,0,1007,1021.5
203,2020-12-28T03:22:00,1.4,西,2.4,西,4.2,95.8,0,0.5,2,3,0,0,1007,1021.5
204,2020-12-28T03:23:00,1.4,西,2.4,西,4.3,95.9,0,0.5,2,3,0,0,1007,1021.5
205,2020-12-28T03:24:00,1.4,西,2.4,西,4.3,95.9,0,0.5,2,3,0,0,1007,1021.5
206,2020-12-28T03:25:00,1.4,西,2.4,西,4.3,96,0,0.5,2,3,0,0,1007,1021.5
207,2020-12-28T03:26:00,1.4,西,2.4,西,4.3,95.9,0,0.5,2,3,0,0,1007,1021.5
208,2020-12-28T03:27:00,1.4,西,2.4,西,4.4,96.1,0,0.5,2,3,0,0,1006.9,1021.3
209,2020-12-28T03:28:00,1.3,西,2.4,西,4.5,96.1,0,0.5,2,3,0,0,1006.9,1021.3
210,2020-12-28T03:29:00,1.2,西,2.4,西,4.4,96,0,0.5,2,3,0,0,1006.8,1021.2
211,2020-12-28T03:30:00,1.1,西,2.4,西,4.5,96,0,0.5,2,3,0,0,1006.8,1021.2
212,2020-12-28T03:31:00,0.9,西,2.1,西,4.5,96.1,0,0.5,2,3,0,0,1006.8,1021.2
213,2020-12-28T03:32:00,0.8,西,2.1,西,4.4,96,0,0.5,2,3,0,0,1006.8,1021.2
214,2020-12-28T03:33:00,0.7,西,2.1,西,4.5,96,0,0.5,2,3,0,0,1006.8,1021.2
215,2020-12-28T03:34:00,0.5,西北西,1.7,西,4.5,96,0,0.5,2,3,0,0,1006.8,1021.2
216,2020-12-28T03:35:00,0.4,西北西,1.6,西,4.5,96.1,0,0.5,2,3,0,0,1006.8,1021.2
217,2020-12-28T03:36:00,0.4,西北西,1.4,西南西,4.5,96,0,0.5,2,3,0,0,1006.9,1021.3
218,2020-12-28T03:37:00,0.3,西北西,1.1,西南西,4.5,96,0,0.5,2,3,0,0,1006.9,1021.3
219,2020-12-28T03:38:00,0.4,西北西,1.4,西北西,4.6,96,0,0.5,2,3,0,0,1007,1021.4
220,2020-12-28T03:39:00,0.4,西北西,1.4,西北西,4.6,96.1,0,0.5,2,3,0,0,1007,1021.4
221,2020-12-28T03:40:00,0.5,西北西,1.7,西,4.6,96.1,0,0.5,2,3,0,0,1007.1,1021.5
222,2020-12-28T03:41:00,0.6,西北西,1.7,西,4.6,96,0,0,2,3,0,0,1007.1,1021.5
223,2020-12-28T03:42:00,0.6,西北西,1.7,西,4.6,96.1,0,0,2,3,0,0,1007,1021.4
224,2020-12-28T03:43:00,0.7,西北西,1.7,西,4.6,96,0,0,2,3,0,0,1007,1021.4
225,2020-12-28T03:44:00,0.8,西北西,1.7,西,4.7,96.1,0,0,2,3,0,0,1007,1021.4
226,2020-12-28T03:45:00,0.8,西北西,1.7,西,4.7,96.2,0,0,2,3,0,0,1007,1021.4
227,2020-12-28T03:46:00,0.8,西北西,1.7,西,4.7,96.1,0,0,2,3,0,0,1007.1,1021.5
228,2020-12-28T03:47:00,0.7,北西,1.7,西,4.7,96.2,0,0,2,3,0,0,1007.1,1021.5
229,2020-12-28T03:48:00,0.6,北西,1.7,西,4.7,96.1,0,0,2,3,0,0,1007.2,1021.6
230,2020-12-28T03:49:00,0.6,北西,1.7,西,4.7,96,0,0,2,3,0,0,1007.2,1021.6
231,2020-12-28T03:50:00,0.5,北西,1.3,西北西,4.6,96,0,0,2,3,0,0,1007.2,1021.6
232,2020-12-28T03:51:00,0.4,北北西,1.1,北西,4.7,96,0,0,2,3,0,0,1007.2,1021.6
233,2020-12-28T03:52:00,0.4,北北西,1.4,北北東,4.7,96.1,0,0,2,3,0,0,1007.2,1021.6
234,2020-12-28T03:53:00,0.5,北北西,1.8,北北東,4.6,96,0,0,2,3,0,0,1007.2,1021.6
235,2020-12-28T03:54:00,0.6,北,1.8,北北東,4.6,96,0,0,2,3,0,0,1007.2,1021.6
236,2020-12-28T03:55:00,0.6,北,1.8,北北東,4.6,96,0,0,2,3,0,0,1007.3,1021.7
237,2020-12-28T03:56:00,0.7,北,1.8,北北東,4.6,96,0,0,2,3,0,0,1007.3,1021.7
238,2020-12-28T03:57:00,0.8,北,1.8,北北東,4.6,96,0,0,2,3,0,0,1007.4,1021.8
239,2020-12-28T03:58:00,0.8,北,1.8,北北東,4.6,96,0,0,2,3,0,0,1007.4,1021.8
240,2020-12-28T03:59:00,0.8,北北東,1.8,北北東,4.7,96.1,0.5,0.5,2.5,3.5,0,0,1007.3,1021.7
241,2020-12-28T04:00:00,0.9,北北東,1.8,北北東,4.8,96.3,0.5,0.5,2.5,3.5,0,0,1007.3,1021.7
242,2020-12-28T04:01:00,0.9,北北東,1.8,北北東,4.8,96.4,0.5,0.5,2.5,3.5,0,0,1007.2,1021.6
243,2020-12-28T04:02:00,1,北北東,1.8,北北東,4.9,96.2,0.5,0.5,2.5,3.5,0,0,1007.2,1021.6
244,2020-12-28T04:03:00,0.9,北北東,1.6,北,4.8,96.3,0.5,0.5,2.5,3.5,0,0,1007.2,1021.6
245,2020-12-28T04:04:00,0.9,北北東,1.6,北,4.7,96.1,0.5,0.5,2.5,3.5,0,0,1007.2,1021.6
246,2020-12-28T04:05:00,0.9,北北東,1.5,北北東,4.7,96,0.5,0.5,2.5,3.5,0,0,1007.2,1021.6
247,2020-12-28T04:06:00,0.9,北北東,1.5,北北東,4.6,96.1,0.5,0.5,2.5,3.5,0,0,1007.2,1021.6
248,2020-12-28T04:07:00,0.9,北北東,1.5,北北東,4.6,95.9,0.5,0.5,2.5,3.5,0,0,1007.3,1021.7
249,2020-12-28T04:08:00,0.9,北北東,1.5,北北東,4.6,96,0.5,0.5,2.5,3.5,0,0,1007.2,1021.6
250,2020-12-28T04:09:00,0.9,北北東,1.5,北北東,4.7,96.1,0,0.5,2.5,3.5,0,0,1007.2,1021.6
251,2020-12-28T04:10:00,0.9,北北東,1.5,北北東,4.6,96.1,0,0.5,2.5,3.5,0,0,1007.2,1021.6
252,2020-12-28T04:11:00,0.9,北北東,1.5,北北東,4.6,96.1,0,0.5,2.5,3.5,0,0,1007.2,1021.6
253,2020-12-28T04:12:00,0.8,北北東,1.5,北北東,4.6,96.1,0,0.5,2.5,3.5,0,0,1007.3,1021.7
254,2020-12-28T04:13:00,0.7,北北東,1.5,北北東,4.6,96.1,0,0.5,2.5,3.5,0,0,1007.3,1021.7
255,2020-12-28T04:14:00,0.6,北北東,1.5,北北東,4.4,96,0,0.5,2.5,3.5,0,0,1007.3,1021.8
256,2020-12-28T04:15:00,0.5,北北東,1.5,北北東,4.4,95.9,0,0.5,2.5,3.5,0,0,1007.2,1021.7
257,2020-12-28T04:16:00,0.4,北北東,1.5,北北東,4.4,95.8,0,0.5,2.5,3.5,0,0,1007.2,1021.7
258,2020-12-28T04:17:00,0.4,北東,1.5,北北東,4.4,96,0,0.5,2.5,3.5,0,0,1007.2,1021.7
259,2020-12-28T04:18:00,0.4,北東,1.5,北北東,4.4,96,0,0.5,2.5,3.5,0,0,1007.1,1021.6
260,2020-12-28T04:19:00,0.3,北東,1.1,北北東,4.4,96.1,0.5,1,3,4,0,0,1007.1,1021.6
261,2020-12-28T04:20:00,0.3,北東,1.2,北北東,4.5,96.1,0.5,1,3,4,0,0,1007.1,1021.5
262,2020-12-28T04:21:00,0.4,北東,1.2,北北東,4.7,96.4,0.5,1,3,4,0,0,1007,1021.4
263,2020-12-28T04:22:00,0.4,北東,1.2,北北東,4.7,96.5,0.5,1,3,4,0,0,1007,1021.4
264,2020-12-28T04:23:00,0.4,北東,1.2,北北東,4.6,96.4,0.5,1,3,4,0,0,1007,1021.4
265,2020-12-28T04:24:00,0.4,北東,1.2,北北東,4.6,96.2,0.5,1,3,4,0,0,1007,1021.4
266,2020-12-28T04:25:00,0.4,北東,1.2,北北東,4.8,96.3,0.5,1,3,4,0,0,1007,1021.4
267,2020-12-28T04:26:00,0.4,北東,1.2,北北東,4.7,96.4,0.5,1,3,4,0,0,1006.9,1021.3
268,2020-12-28T04:27:00,0.4,北東,1.2,北北東,4.7,96.4,0.5,1,3,4,0,0,1006.9,1021.3
269,2020-12-28T04:28:00,0.3,北東,1.2,北北東,4.6,96.2,0.5,1,3,4,0,0,1006.9,1021.3
270,2020-12-28T04:29:00,0.3,北北東,1.2,北北東,4.6,96,0,1,3,4,0,0,1006.9,1021.3
271,2020-12-28T04:30:00,0.2,静穏,1.1,北東,4.5,96,0,1,3,4,0,0,1007,1021.4
272,2020-12-28T04:31:00,0.1,静穏,0.8,北東,4.5,96.1,0,1,3,4,0,0,1007,1021.4
273,2020-12-28T04:32:00,0.1,静穏,0.7,北東,4.5,96.1,0,1,3,4,0,0,1006.9,1021.3
274,2020-12-28T04:33:00,0,静穏,0.5,北東,4.5,96.2,0,1,3,4,0,0,1006.9,1021.3
275,2020-12-28T04:34:00,0,静穏,0.5,北東,4.4,96.1,0,1,3,4,0,0,1006.9,1021.3
276,2020-12-28T04:35:00,0,静穏,0,東,4.4,96,0,1,3,4,0,0,1006.9,1021.3
277,2020-12-28T04:36:00,0,静穏,0.2,南南西,4.4,96,0,1,3,4,0,0,1006.9,1021.3
278,2020-12-28T04:37:00,0,静穏,0.2,南南西,4.5,96.1,0,1,3,4,0,0,1006.8,1021.2
279,2020-12-28T04:38:00,0,静穏,0.3,西,4.6,96.4,0,1,3,4,0,0,1006.8,1021.2
280,2020-12-28T04:39:00,0,静穏,0.3,西,4.5,96.3,0,1,3,4,0,0,1006.8,1021.2
281,2020-12-28T04:40:00,0.1,静穏,1.2,南,4.4,96.2,0,1,3,4,0,0,1006.7,1021.1
282,2020-12-28T04:41:00,0.2,静穏,1.9,南,4.3,96,0,1,3,4,0,0,1006.8,1021.3
283,2020-12-28T04:42:00,0.4,南,1.9,南,4.4,96.1,0,1,3,4,0,0,1006.7,1021.1
284,2020-12-28T04:43:00,0.5,南,1.9,南,4.3,96.1,0,1,3,4,0,0,1006.8,1021.3
285,2020-12-28T04:44:00,0.6,南,1.9,南,4.3,96.1,0,1,3,4,0,0,1006.8,1021.3
286,2020-12-28T04:45:00,0.8,南南西,1.9,南,4.3,96.1,0,1,3,4,0,0,1006.8,1021.3
287,2020-12-28T04:46:00,0.9,南南西,1.9,南,4.4,96.1,0,1,3,4,0,0,1006.8,1021.2
288,2020-12-28T04:47:00,1,南南西,1.9,南,4.6,96.4,0,1,3,4,0,0,1006.8,1021.2
289,2020-12-28T04:48:00,1.2,南南西,1.9,南,4.5,96.5,0,1,3,4,0,0,1006.8,1021.2
290,2020-12-28T04:49:00,1.3,南南西,2.1,南南西,4.5,96.4,0.5,1.5,3.5,4.5,0,0,1006.8,1021.2
291,2020-12-28T04:50:00,1.4,南南西,2.1,南南西,4.5,96.2,0.5,1.5,3.5,4.5,0,0,1006.9,1021.3
292,2020-12-28T04:51:00,1.4,南南西,2.1,南南西,4.5,96.3,0.5,1.5,3.5,4.5,0,0,1006.9,1021.3
293,2020-12-28T04:52:00,1.4,南南西,2.1,南南西,4.6,96.4,0.5,1.5,3.5,4.5,0,0,1007,1021.4
294,2020-12-28T04:53:00,1.4,南南西,2.1,南南西,4.5,96.4,0.5,1.5,3.5,4.5,0,0,1007,1021.4
295,2020-12-28T04:54:00,1.3,南南西,2.1,南南西,4.6,96.3,0.5,1.5,3.5,4.5,0,0,1007,1021.4
296,2020-12-28T04:55:00,1.3,南南西,2.1,南南西,4.4,96.2,0.5,1.5,3.5,4.5,0,0,1006.9,1021.3
297,2020-12-28T04:56:00,1.3,南南西,2.1,南南西,4.4,96.1,0.5,1.5,3.5,4.5,0,0,1006.8,1021.2
298,2020-12-28T04:57:00,1.2,南南西,2.1,南南西,4.4,96.2,0.5,1.5,3.5,4.5,0,0,1006.8,1021.2
299,2020-12-28T04:58:00,1.1,南南西,2.1,南南西,4.4,96.3,0.5,1.5,3.5,4.5,0,0,1006.8,1021.2
300,2020-12-28T04:59:00,1,南南西,2.1,南南西,4.5,96.3,0,1,3.5,4.5,0,0,1006.8,1021.2
301,2020-12-28T05:00:00,0.9,南南西,1.8,南南西,4.6,96.5,0,1,3.5,4.5,0,0,1006.9,1021.3
302,2020-12-28T05:01:00,0.9,南南西,1.7,南西,4.7,96.5,0,1,3.5,4.5,0,0,1007,1021.4
303,2020-12-28T05:02:00,0.7,南南西,1.7,南西,4.5,96.5,0,1,3.5,4.5,0,0,1006.9,1021.3
304,2020-12-28T05:03:00,0.7,南南西,1.7,南西,4.4,96.3,0,1,3.5,4.5,0,0,1007,1021.5
305,2020-12-28T05:04:00,0.6,南南西,1.4,南南西,4.5,96.2,0,1,3.5,4.5,0,0,1006.9,1021.3
306,2020-12-28T05:05:00,0.5,南南西,1.4,南南西,4.4,96.1,0,1,3.5,4.5,0,0,1006.9,1021.3
307,2020-12-28T05:06:00,0.5,南南西,1.4,南南西,4.3,96.1,0,1,3.5,4.5,0,0,1006.9,1021.4
308,2020-12-28T05:07:00,0.4,南南西,1.2,南,4.6,96.3,0,1,3.5,4.5,0,0,1006.8,1021.2
309,2020-12-28T05:08:00,0.4,南南西,1.2,南,4.6,96.6,0,1,3.5,4.5,0,0,1006.9,1021.3
310,2020-12-28T05:09:00,0.4,南南西,1.2,南,4.6,96.5,0,1,3.5,4.5,0,0,1006.9,1021.3
311,2020-12-28T05:10:00,0.4,南南西,1.2,南,4.4,96.3,0,1,3.5,4.5,0,0,1006.8,1021.2
312,2020-12-28T05:11:00,0.4,南南西,1.1,南,4.4,96.2,0,1,3.5,4.5,0,0,1006.7,1021.1
313,2020-12-28T05:12:00,0.4,南南西,1.1,南,4.4,96.1,0,1,3.5,4.5,0,0,1006.6,1021
314,2020-12-28T05:13:00,0.4,南南西,1.1,南,4.4,96.2,0,1,3.5,4.5,0,0,1006.7,1021.1
315,2020-12-28T05:14:00,0.3,南南西,1.1,南,4.5,96.3,0,1,3.5,4.5,0,0,1006.7,1021.1
316,2020-12-28T05:15:00,0.3,南西,1.1,南,4.7,96.6,0,1,3.5,4.5,0,0,1006.7,1021.1
317,2020-12-28T05:16:00,0.3,南西,1.1,南,4.7,96.7,0,1,3.5,4.5,0,0,1006.7,1021.1
318,2020-12-28T05:17:00,0.3,南南西,1.1,南,4.5,96.6,0,1,3.5,4.5,0,0,1006.7,1021.1